Location: Newark
(41.8083°N, 72.2500°W)
Time: 11:26:41
(UTC+00:00)

Altair - Pass Details

Date: 05 December 2021
Orbit: 1501 x 1683 km, 47.2° (Epoch: 27 January)

Event Time Altitude Azimuth Distance (km) Brightness Sun altitude
Rises 22:53:40 0° 278° (W) 4,734 11.3 -17.2°
Reaches altitude 10° 22:56:51 10° 281° (WNW) 3,728 10.5 -17.8°
Maximum altitude 23:06:08 63° 2° (N) 1,665 7.5 -19.5°
Enters shadow 23:11:08 30° 73° (ENE) 2,446 8.0 -20.4°
